voltage (V),energy (Wh),energy rate (W),Current Time
8.241,35.959,3.22223,1662668855.5749705
8.24,35.959,4.00464,1662668856.5886958
8.24,35.959,4.00464,1662668857.5808794
8.25,35.959,2.79675,1662668858.5778444
8.25,35.959,2.79675,1662668859.5739715
8.248,35.959,2.80432,1662668860.5759404
8.249,35.9513,2.80466,1662668861.5789428
8.251,35.9513,2.83009,1662668862.5805521
8.251,35.9513,2.90435,1662668863.5779474
8.251,35.9513,2.90435,1662668864.5779202
8.25,35.9513,2.8875,1662668865.5787184
8.25,35.9513,2.79675,1662668866.5779467
8.25,35.9513,2.79675,1662668867.5778906
8.242,35.9513,2.90118,1662668868.5789669
8.247,35.9513,2.80398,1662668869.5779719
8.248,35.9513,2.80432,1662668870.578969
8.247,35.9436,2.78749,1662668871.5789406
8.246,35.9436,2.80364,1662668872.5779514
8.246,35.9436,2.85312,1662668873.5768635
8.246,35.9436,2.82838,1662668874.577893
8.247,35.9436,2.80398,1662668875.5736284
8.25,35.9436,2.78025,1662668876.5799298
8.25,35.9436,2.78025,1662668877.5749178
8.251,35.9436,2.78884,1662668878.5759549
8.251,35.9436,2.79709,1662668879.578815
8.251,35.9436,2.79709,1662668880.5778909
8.25,35.9436,2.739,1662668881.5738161
8.247,35.9359,2.94418,1662668882.5819874
8.251,35.9359,2.75583,1662668883.574738
8.251,35.9359,2.80534,1662668884.5779378
8.251,35.9359,2.78059,1662668885.5755782
8.25,35.9359,2.739,1662668886.5782194
8.252,35.9359,2.76442,1662668887.5779066
8.252,35.9359,2.76442,1662668888.577909
8.252,35.9359,2.76442,1662668889.5835373
8.252,35.9359,2.76442,1662668890.5768821
8.253,35.9359,2.7565,1662668891.5749431
8.253,35.9359,2.7565,1662668892.5716112
8.244,35.9282,3.09974,1662668893.577769
8.252,35.9282,2.83044,1662668894.5779724
8.252,35.9282,2.81393,1662668895.5789649
8.252,35.9282,2.81393,1662668896.5777662
8.251,35.9282,2.84659,1662668897.57794
8.251,35.9282,2.84659,1662668898.5738916
8.249,35.9282,2.98614,1662668899.5758662
8.252,35.9282,2.9047,1662668900.5788057
8.252,35.9282,2.9047,1662668901.5790341
8.249,35.9205,2.90365,1662668902.5769398
8.238,35.9205,3.11396,1662668903.5788622
8.25,35.9205,2.94525,1662668904.5779185
8.25,35.9205,2.91225,1662668905.5790801
8.25,35.9205,2.91225,1662668906.5738318
8.25,35.9205,2.904,1662668907.5778844
8.246,35.9205,2.9933,1662668908.5768712
8.25,35.9205,2.9205,1662668909.5738955
8.251,35.9205,2.85485,1662668910.57795
8.249,35.9205,2.83766,1662668911.5787466
8.25,35.9205,2.805,1662668912.5777631
8.25,35.9205,2.805,1662668913.5778861
8.251,35.9128,2.84659,1662668914.5810404
8.251,35.9128,2.84659,1662668915.5739005
8.251,35.9128,2.9291,1662668916.5830519
8.249,35.9128,2.8624,1662668917.5805256
8.251,35.9128,2.84659,1662668918.5780563
8.251,35.9128,2.84659,1662668919.5819056
8.25,35.9128,2.79675,1662668920.5738633
8.251,35.9128,2.83009,1662668921.576869
8.251,35.9128,2.84659,1662668922.5779591
8.251,35.9051,2.90435,1662668923.581028
8.251,35.9051,2.90435,1662668924.5779295
8.25,35.9051,2.838,1662668925.5736203
8.25,35.9051,2.81325,1662668926.5749154
8.252,35.9051,2.82218,1662668927.5789475
8.252,35.9051,2.82218,1662668928.5759182
8.251,35.9051,2.82184,1662668929.5726571
8.25,35.9051,2.81325,1662668930.5779438
8.251,35.9051,2.83834,1662668931.5789011
8.251,35.9051,2.83834,1662668932.5768156
8.255,35.8974,2.83146,1662668933.5777225
8.25,35.8974,3.003,1662668934.5777071
8.25,35.8974,3.003,1662668935.5759182
8.251,35.8974,2.85485,1662668936.5778775
8.255,35.8974,2.83146,1662668937.5788119
8.255,35.8974,2.83146,1662668938.5759766
8.253,35.8974,2.87204,1662668939.5823064
8.253,35.8974,2.87204,1662668940.5779471
8.254,35.8974,2.96319,1662668941.5778859
8.254,35.8974,3.05398,1662668942.5759599
8.254,35.8897,2.95493,1662668943.5788927
8.251,35.8897,2.9126,1662668944.5778787
8.251,35.8897,2.9126,1662668945.5779474
8.254,35.8897,2.85588,1662668946.5747938
8.251,35.8897,2.83834,1662668947.5748796
8.25,35.8897,2.8545,1662668948.5789919
8.249,35.8897,2.79641,1662668949.5767729
8.249,35.8897,2.82941,1662668950.5836046
8.249,35.8897,2.82941,1662668951.5799773
8.244,35.8897,2.86067,1662668952.5737052
8.246,35.8897,2.95207,1662668953.5766056
8.246,35.8897,2.95207,1662668954.5769229
8.249,35.882,2.82941,1662668955.5747914
8.248,35.882,2.86206,1662668956.577853
8.248,35.882,2.82082,1662668957.5774653
8.244,35.882,2.86891,1662668958.5805106
8.25,35.882,2.97,1662668959.5726776
8.25,35.882,2.97,1662668960.5785646
8.246,35.882,2.91084,1662668961.5811036
8.246,35.882,2.91084,1662668962.5779262
8.251,35.882,2.96211,1662668963.5768549
8.251,35.882,2.96211,1662668964.5759318
8.25,35.8743,2.9205,1662668965.5769608
8.252,35.8743,2.95422,1662668966.5789275
8.25,35.8743,2.89575,1662668967.5819845
8.25,35.8743,2.89575,1662668968.5788393
8.252,35.8743,2.97072,1662668969.5778425
8.252,35.8743,2.97072,1662668970.5779154
8.253,35.8743,2.80602,1662668971.5789311
8.253,35.8743,2.80602,1662668972.5777016
8.254,35.8743,2.83938,1662668973.5766704
8.254,35.8743,2.83938,1662668974.575182
8.259,35.8666,2.82458,1662668975.5787261
8.251,35.8666,2.77234,1662668976.5852425
8.251,35.8666,2.77234,1662668977.575969
8.253,35.8666,2.85554,1662668978.5779009
8.253,35.8666,2.80602,1662668979.5792644
8.251,35.8666,2.96211,1662668980.5832076
8.251,35.8666,2.96211,1662668981.5769241
8.253,35.8666,2.81427,1662668982.582016
8.251,35.8666,2.96211,1662668983.582346
8.251,35.8666,2.96211,1662668984.5863287
8.252,35.8589,2.92946,1662668985.5739577
8.254,35.8589,2.92192,1662668986.5787768
8.253,35.8589,2.94632,1662668987.5800571
8.251,35.8589,2.90435,1662668988.5798516
8.251,35.8589,2.82184,1662668989.5914009
8.251,35.8589,2.82184,1662668990.5779219
8.252,35.8589,2.93771,1662668991.5768976
8.25,35.8589,2.91225,1662668992.5780342
8.251,35.8589,2.82184,1662668993.5789616
8.251,35.8589,2.85485,1662668994.5830562
8.249,35.8512,2.80466,1662668995.5768721
8.252,35.8512,2.80568,1662668996.5748427
8.249,35.8512,2.8459,1662668997.5767465
8.227,35.8512,2.82186,1662668998.5842164
8.227,35.8512,2.82186,1662668999.5748465
8.234,35.8512,2.78309,1662669000.5778956
8.234,35.8512,2.78309,1662669001.5778992
8.23,35.8512,2.90519,1662669002.5769613
8.239,35.8512,2.85069,1662669003.5779672
8.243,35.8512,2.84383,1662669004.5779831
8.243,35.8512,2.84383,1662669005.5798273
8.247,35.8512,2.84521,1662669006.5758915
8.245,35.8435,2.83628,1662669007.578902
8.248,35.8435,2.81257,1662669008.5779426
8.248,35.8435,2.81257,1662669009.5779471
8.251,35.8435,2.79709,1662669010.5778706
8.249,35.8435,2.8459,1662669011.5779204
8.249,35.8435,2.8459,1662669012.573786
8.244,35.8435,2.97608,1662669013.5797932
8.249,35.8435,2.90365,1662669014.5779583
8.249,35.8435,2.90365,1662669015.5788748
8.246,35.8358,2.82013,1662669016.5789137
8.248,35.8358,2.8703,1662669017.5779955
8.248,35.8358,2.8703,1662669018.574863
8.249,35.8358,2.87065,1662669019.5789704
8.248,35.8358,2.85381,1662669020.5789738
8.248,35.8358,2.85381,1662669021.5749149
8.246,35.8358,2.91084,1662669022.5779498
8.248,35.8358,3.10125,1662669023.5825274
8.246,35.8358,3.45507,1662669024.5826533
8.246,35.8358,3.45507,1662669025.5779343
8.247,35.8281,3.02665,1662669026.5779684
8.247,35.8281,3.02665,1662669027.5777884
8.247,35.8281,3.07613,1662669028.5785031
8.247,35.8281,3.07613,1662669029.5779433
8.245,35.8281,3.00942,1662669030.5778978
8.243,35.8281,3.04991,1662669031.5758369
8.246,35.8281,2.93558,1662669032.5860317
8.248,35.8281,2.82082,1662669033.5778737
8.245,35.8281,2.82803,1662669034.579639
8.247,35.8281,2.81223,1662669035.5777252
8.247,35.8281,2.81223,1662669036.5726404
8.248,35.8204,2.8703,1662669037.5778682
8.246,35.8204,2.84487,1662669038.5790384
8.247,35.8204,2.82047,1662669039.5779109
8.245,35.8204,2.91873,1662669040.584475
8.245,35.8204,2.91873,1662669041.5768759
8.247,35.8204,2.82047,1662669042.5777287
8.244,35.8204,2.93486,1662669043.5777521
8.244,35.8204,2.93486,1662669044.577951
8.248,35.8204,2.79607,1662669045.5776112
8.248,35.8204,2.79607,1662669046.5829909
8.246,35.8127,2.81189,1662669047.5789351
8.246,35.8127,2.81189,1662669048.5748231
8.246,35.8127,2.86136,1662669049.5800407
8.248,35.8127,2.79607,1662669050.5779436
8.247,35.8127,2.80398,1662669051.5788972
8.245,35.8127,2.85277,1662669052.5767889
8.245,35.8127,2.85277,1662669053.5821116
8.246,35.8127,2.85312,1662669054.5778594
8.246,35.8127,2.82013,1662669055.5769401
8.246,35.805,2.77066,1662669056.5790541
8.246,35.805,2.79539,1662669057.5783231
8.246,35.805,2.79539,1662669058.5768209
8.247,35.805,2.85346,1662669059.5778813
8.246,35.805,2.82838,1662669060.5776944
8.246,35.805,2.82838,1662669061.5738602
8.245,35.805,3.00118,1662669062.5840478
8.246,35.805,2.87785,1662669063.5779428
8.247,35.805,2.96067,1662669064.5779631
8.247,35.805,2.96067,1662669065.57587
8.247,35.805,2.83697,1662669066.5779009
8.246,35.7973,2.79539,1662669067.5779324
8.248,35.7973,2.78782,1662669068.5807931
8.248,35.7973,2.78782,1662669069.5768907
8.244,35.7973,2.79472,1662669070.5778701
8.245,35.7973,2.79505,1662669071.5789292
8.244,35.7973,2.84418,1662669072.5808899
8.244,35.7973,2.97608,1662669073.5799839
8.243,35.7973,2.94275,1662669074.58006
8.243,35.7973,2.81086,1662669075.5819647
8.241,35.7973,2.7937,1662669076.5789371
8.241,35.7973,2.7937,1662669077.5779867
8.242,35.7896,2.85997,1662669078.5779464
8.242,35.7896,2.85997,1662669079.5739129
8.242,35.7896,2.80228,1662669080.5779614
8.242,35.7896,2.80228,1662669081.5820787
8.242,35.7896,2.80228,1662669082.5790906
8.241,35.7896,2.90083,1662669083.5863812
8.241,35.7896,2.90083,1662669084.5820191
8.241,35.7896,2.92555,1662669085.5778887
8.241,35.7896,2.92555,1662669086.5748079
8.245,35.7896,2.9682,1662669087.5788183
8.245,35.7896,2.9682,1662669088.5749264
8.243,35.7819,3.02518,1662669089.5778871
8.243,35.7819,3.02518,1662669090.5738294
8.245,35.7819,2.95995,1662669091.5749094
8.244,35.7819,2.96784,1662669092.5789568
8.245,35.7819,2.90224,1662669093.5778432
8.245,35.7819,2.90224,1662669094.5789542
8.245,35.7819,2.84452,1662669095.5779591
8.248,35.7819,2.77958,1662669096.5787547
8.248,35.7819,2.77958,1662669097.5769863
8.245,35.7742,2.84452,1662669098.5736356
8.247,35.7742,2.79573,1662669099.5820591
8.246,35.7742,2.90259,1662669100.5832
8.246,35.7742,2.90259,1662669101.5779114
8.243,35.7742,2.85208,1662669102.5798013
8.243,35.7742,2.85208,1662669103.5835018
8.247,35.7742,2.82047,1662669104.581074
8.247,35.7742,2.82047,1662669105.5789793
8.245,35.7742,2.78681,1662669106.5789077
8.245,35.7742,2.84452,1662669107.5779552
8.247,35.7742,2.82872,1662669108.5779595
8.245,35.7665,2.8775,1662669109.5820694
8.245,35.7665,2.8775,1662669110.5779314
8.246,35.7665,2.80364,1662669111.5779126
8.245,35.7665,2.76207,1662669112.5787654
8.245,35.7665,2.76207,1662669113.5799441
8.241,35.7665,2.85963,1662669114.5779517
8.241,35.7665,2.7937,1662669115.573875
8.244,35.7665,2.8112,1662669116.5789516
8.244,35.7665,2.8112,1662669117.5790334
8.245,35.7665,2.8775,1662669118.5839648
8.242,35.7588,2.85997,1662669119.5777087
8.239,35.7588,2.92484,1662669120.5819397
8.219,35.7588,2.89309,1662669121.5777638
8.219,35.7588,2.89309,1662669122.575865
8.219,35.7588,2.83555,1662669123.5778682
8.219,35.7588,2.83555,1662669124.5820441
8.23,35.7588,2.7982,1662669125.5749164
8.229,35.7588,2.83078,1662669126.5757661
8.229,35.7588,2.81432,1662669127.5820708
8.23,35.7588,2.81466,1662669128.5789366
8.235,35.7511,2.92342,1662669129.5793161
8.245,35.7511,2.81154,1662669130.5923202
8.245,35.7511,2.81154,1662669131.5789399
8.246,35.7511,2.77066,1662669132.5778768
8.243,35.7511,2.93451,1662669133.5779452
8.246,35.7511,2.92733,1662669134.5779369
8.246,35.7511,2.92733,1662669135.5810573
8.245,35.7511,2.83628,1662669136.5819449
8.244,35.7511,2.8112,1662669137.5797441
8.244,35.7511,2.90189,1662669138.5779126
8.243,35.7511,2.90154,1662669139.5790834
8.245,35.7434,2.8033,1662669140.5729017
8.245,35.7434,2.81979,1662669141.5779819
8.245,35.7434,2.81979,1662669142.5820529
8.246,35.7434,2.82838,1662669143.5832822
8.246,35.7434,2.82838,1662669144.5778706
8.245,35.7434,2.90224,1662669145.5778346
8.242,35.7434,2.90118,1662669146.577678
8.242,35.7434,2.90118,1662669147.5767975
8.244,35.7434,2.95135,1662669148.5778856
8.241,35.7434,2.99972,1662669149.5779364
8.243,35.7357,2.93451,1662669150.5788743
8.244,35.7357,2.93486,1662669151.5777156
8.245,35.7357,2.91048,1662669152.5779448
8.242,35.7357,2.92591,1662669153.5805247
8.243,35.7357,2.93451,1662669154.5788043
8.243,35.7357,2.93451,1662669155.57847
8.251,35.7357,2.82184,1662669156.5789013
8.244,35.7357,2.87716,1662669157.5759568
8.242,35.7357,2.84349,1662669158.5777783
8.243,35.7357,2.81086,1662669159.5779402
8.245,35.728,2.94346,1662669160.5844514
8.245,35.728,2.94346,1662669161.5814581
8.243,35.728,2.80262,1662669162.5777922
8.244,35.728,2.93486,1662669163.5776749
8.244,35.728,2.93486,1662669164.5778913
8.244,35.728,2.82769,1662669165.5798159
8.244,35.728,2.82769,1662669166.5779672
8.242,35.728,2.85173,1662669167.5829859
8.242,35.728,2.85173,1662669168.574852
8.24,35.728,2.89224,1662669169.5819924
8.244,35.7203,2.78647,1662669170.5779459
8.243,35.7203,2.79438,1662669171.5767632
8.243,35.7203,2.79438,1662669172.5779536
8.242,35.7203,2.81876,1662669173.5779977
8.242,35.7203,2.81876,1662669174.5779443
8.243,35.7203,2.84383,1662669175.5758951
8.244,35.7203,2.79472,1662669176.5768719
8.242,35.7203,2.81052,1662669177.5818114
8.242,35.7203,2.81052,1662669178.5768342
8.244,35.7203,2.85242,1662669179.5798481
8.244,35.7203,2.85242,1662669180.5789902
8.244,35.7126,2.8854,1662669181.5799065
8.237,35.7126,3.0724,1662669182.5788224
8.236,35.7126,2.96496,1662669183.5789676
8.239,35.7126,2.999,1662669184.5769341
8.239,35.7126,2.85893,1662669185.579747
8.239,35.7126,2.85893,1662669186.5748069
8.243,35.7126,2.76965,1662669187.5778563
8.243,35.7126,2.76965,1662669188.5820725
8.239,35.7126,2.82598,1662669189.5797946
8.239,35.7126,2.82598,1662669190.5779636
8.241,35.7126,2.85963,1662669191.5818775
8.241,35.7126,2.85963,1662669192.5756435
8.239,35.7049,2.90837,1662669193.5779364
8.241,35.7049,2.80194,1662669194.5779643
8.239,35.7049,2.81774,1662669195.5824106
8.239,35.7049,2.81774,1662669196.575923
8.24,35.7049,2.77688,1662669197.5778098
8.239,35.7049,2.79302,1662669198.5820987
8.239,35.7049,2.79302,1662669199.5778999
8.238,35.7049,2.75973,1662669200.5778985
8.237,35.7049,2.78411,1662669201.5779495
8.234,35.6972,2.79956,1662669202.5789473
8.234,35.6972,2.79956,1662669203.581202
8.234,35.6972,2.79956,1662669204.5748613
8.235,35.6972,2.78343,1662669205.5789378
8.234,35.6972,2.82426,1662669206.577852
8.231,35.6972,2.93024,1662669207.5786617
8.231,35.6972,2.93024,1662669208.5778553
8.236,35.6972,2.86613,1662669209.577889
8.236,35.6972,2.98967,1662669210.5778646
8.233,35.6972,2.93095,1662669211.5788629
8.235,35.6972,2.89872,1662669212.5789385
8.235,35.6895,2.84931,1662669213.5779407
8.236,35.6895,2.90731,1662669214.5799828
8.236,35.6895,2.92378,1662669215.5790591
8.236,35.6895,2.92378,1662669216.5779085
8.238,35.6895,2.77621,1662669217.5735753
8.24,35.6895,2.8428,1662669218.5797856
8.24,35.6895,2.78512,1662669219.5779755
8.24,35.6895,2.80984,1662669220.5798705
8.238,35.6895,2.80092,1662669221.5779514
8.24,35.6895,2.79336,1662669222.5776863
8.236,35.6818,2.94025,1662669223.5778434
8.236,35.6818,2.94025,1662669224.5779757
8.238,35.6818,2.78444,1662669225.5777802
8.238,35.6818,2.76797,1662669226.5830362
8.24,35.6818,2.76864,1662669227.5779192
8.24,35.6818,2.80984,1662669228.5758808
8.24,35.6818,2.80984,1662669229.577889
8.239,35.6818,2.88365,1662669230.5789502
8.24,35.6818,2.79336,1662669231.5757959
8.24,35.6818,2.79336,1662669232.5779128
8.238,35.6818,2.80092,1662669233.5789957
8.24,35.6741,2.77688,1662669234.5778773
8.238,35.6741,2.85859,1662669235.5768301
8.238,35.6741,2.85859,1662669236.5870759
8.24,35.6741,2.79336,1662669237.5776911
8.239,35.6741,2.84245,1662669238.5726333
8.238,35.6741,2.79268,1662669239.5788207
8.238,35.6741,2.79268,1662669240.5749805
8.238,35.6741,2.79268,1662669241.5726295
8.239,35.6741,2.88365,1662669242.5768824
8.239,35.6741,2.88365,1662669243.5738416
8.232,35.6664,2.84004,1662669244.5779746
8.232,35.6664,2.84004,1662669245.5779438
8.233,35.6664,2.79099,1662669246.5767322
8.236,35.6664,2.87436,1662669247.5789132
8.236,35.6664,2.87436,1662669248.5820343
8.236,35.6664,2.71788,1662669249.5834901
8.236,35.6664,2.792,1662669250.5854199
8.236,35.6664,2.792,1662669251.5779388
8.237,35.6664,2.81705,1662669252.5785551
8.238,35.6664,2.89978,1662669253.5769506
8.238,35.6664,2.73502,1662669254.5779538
8.238,35.6664,2.73502,1662669255.5779426
8.24,35.6587,2.74392,1662669256.5788627
8.239,35.6587,2.81774,1662669257.5777483
8.237,35.6587,2.80882,1662669258.5768361
8.237,35.6587,2.80882,1662669259.5788097
8.238,35.6587,2.69383,1662669260.581965
8.238,35.6587,2.69383,1662669261.578933
8.238,35.6587,2.73502,1662669262.5769584
8.238,35.6587,2.73502,1662669263.5736697
8.237,35.6587,2.95708,1662669264.5738511
8.238,35.651,2.72678,1662669265.5737531
8.235,35.651,2.79166,1662669266.5789015
8.236,35.651,2.74259,1662669267.5797181
8.235,35.651,2.89048,1662669268.5790792
8.235,35.651,2.89048,1662669269.574851
8.236,35.651,2.92378,1662669270.5759594
8.236,35.651,2.84142,1662669271.5777693
8.236,35.651,2.84142,1662669272.5757678
8.236,35.651,2.85789,1662669273.5779448
8.236,35.651,2.82495,1662669274.5800753
8.234,35.651,2.9313,1662669275.5789332
8.234,35.651,2.9313,1662669276.5807869
8.238,35.6433,2.83387,1662669277.5779972
8.239,35.6433,2.76006,1662669278.5792177
8.239,35.6433,2.76006,1662669279.5779114
8.236,35.6433,2.75906,1662669280.5824685
8.238,35.6433,2.7103,1662669281.5768988
8.239,35.6433,2.71063,1662669282.5766721
8.239,35.6433,2.86717,1662669283.5797703
8.239,35.6433,2.86717,1662669284.5759201
8.236,35.6433,2.75082,1662669285.577754
8.237,35.6356,2.74292,1662669286.5759158
8.237,35.6356,2.75116,1662669287.5788267
8.238,35.6356,2.80092,1662669288.5779097
8.236,35.6356,2.77553,1662669289.5778589
8.237,35.6356,2.77587,1662669290.5779459
8.237,35.6356,2.77587,1662669291.5779293
8.237,35.6356,2.76763,1662669292.5799317
8.237,35.6356,2.76763,1662669293.5726428
8.237,35.6356,2.73468,1662669294.5749547
8.235,35.6356,2.76696,1662669295.577878
8.235,35.6356,2.70108,1662669296.5786939
8.239,35.6356,2.70239,1662669297.577662
8.237,35.6279,2.78411,1662669298.5790579
8.237,35.6279,2.75939,1662669299.5840743
8.231,35.6279,2.93024,1662669300.5789306
8.23,35.6279,2.83935,1662669301.5779293
8.23,35.6279,2.83935,1662669302.5758862
8.234,35.6279,2.84073,1662669303.5779688
8.234,35.6279,2.84073,1662669304.5799847
8.236,35.6279,2.80848,1662669305.5779846
8.236,35.6279,2.83318,1662669306.5778418
8.235,35.6202,2.78343,1662669307.583518
8.235,35.6202,2.78343,1662669308.5820639
8.234,35.6202,2.79133,1662669309.5769732
8.234,35.6202,2.79133,1662669310.5800347
8.235,35.6202,2.77519,1662669311.5779653
8.234,35.6202,2.78309,1662669312.5797203
8.23,35.6202,2.91342,1662669313.5819006
8.23,35.6202,2.91342,1662669314.5790477
8.236,35.6202,2.77553,1662669315.5777633
8.236,35.6202,2.77553,1662669316.5769484
8.236,35.6202,2.77553,1662669317.5778852
8.237,35.6125,2.77587,1662669318.5855398
8.237,35.6125,2.77587,1662669319.5779581
8.236,35.6125,2.792,1662669320.5799408
8.236,35.6125,2.792,1662669321.5749404
8.235,35.6125,2.78343,1662669322.5779705
8.235,35.6125,2.78343,1662669323.5747328
8.23,35.6125,3.03687,1662669324.579124
8.233,35.6125,2.79922,1662669325.5779476
8.233,35.6125,2.76629,1662669326.577867
8.233,35.6125,2.79922,1662669327.5767159
8.233,35.6125,2.79922,1662669328.5739644
8.228,35.6048,2.88803,1662669329.5788331
8.227,35.6048,2.97817,1662669330.5839322
8.227,35.6048,2.97817,1662669331.5747123
8.231,35.6048,2.87262,1662669332.5777979
8.231,35.6048,2.87262,1662669333.577899
8.228,35.6048,2.88803,1662669334.5746257
8.229,35.6048,2.88015,1662669335.5789995
8.23,35.6048,2.90519,1662669336.5779259
8.23,35.6048,2.90519,1662669337.5736816
8.231,35.6048,2.91377,1662669338.5737724
8.234,35.5971,2.80779,1662669339.5778825
8.236,35.5971,2.8826,1662669340.5822697
8.236,35.5971,2.8826,1662669341.5757456
8.235,35.5971,2.81637,1662669342.5777161
8.235,35.5971,2.90695,1662669343.5778339
8.235,35.5971,2.90695,1662669344.5789278
8.235,35.5971,2.78343,1662669345.5788488
8.235,35.5971,2.78343,1662669346.5749984
8.236,35.5971,2.81671,1662669347.5789337
8.236,35.5971,2.82495,1662669348.5773168
8.236,35.5971,2.82495,1662669349.5739613
8.235,35.5894,2.81637,1662669350.5830429
8.235,35.5894,2.81637,1662669351.5778496
8.237,35.5894,2.80882,1662669352.5756848
8.237,35.5894,2.80882,1662669353.5739079
8.235,35.5894,2.79166,1662669354.5789261
8.236,35.5894,2.81671,1662669355.5779214
8.236,35.5894,2.81671,1662669356.578604
8.236,35.5894,2.81671,1662669357.5777786
8.235,35.5894,2.84931,1662669358.5819921
8.235,35.5894,2.79166,1662669359.5789552
8.231,35.5817,2.83146,1662669360.5779452
8.231,35.5817,2.79031,1662669361.5789649
8.237,35.5817,2.79234,1662669362.5788679
8.232,35.5817,2.79888,1662669363.5820401
8.233,35.5817,2.81569,1662669364.5791905
8.233,35.5817,2.81569,1662669365.5779715
8.234,35.5817,2.80779,1662669366.577904
8.232,35.5817,2.80711,1662669367.5819316
8.232,35.5817,2.81534,1662669368.5785241
8.232,35.5817,2.81534,1662669369.5769446
8.231,35.5817,2.79031,1662669370.5758595
8.226,35.574,2.96959,1662669371.580034
8.225,35.574,2.8294,1662669372.5845864
8.224,35.574,2.93597,1662669373.5799384
8.224,35.574,2.93597,1662669374.5758808
8.23,35.574,2.77351,1662669375.5745981
8.227,35.574,2.87122,1662669376.5812619
8.228,35.574,2.81398,1662669377.5780663
8.228,35.574,3.00322,1662669378.5865052
8.228,35.574,3.00322,1662669379.5768583
8.231,35.574,2.78208,1662669380.5769315
8.23,35.5663,2.76528,1662669381.5798986
8.23,35.5663,2.76528,1662669382.5759156
8.232,35.5663,2.83181,1662669383.5875394
8.232,35.5663,2.83181,1662669384.5809267
8.231,35.5663,2.80677,1662669385.5759673
8.232,35.5663,2.80711,1662669386.576972
8.233,35.5663,2.79099,1662669387.5769634
8.234,35.5663,2.84073,1662669388.5779364
8.232,35.5663,2.77418,1662669389.5777245
8.232,35.5663,2.77418,1662669390.5746663
8.23,35.5663,2.93811,1662669391.5768316
8.23,35.5663,2.93811,1662669392.5789018
8.232,35.5586,2.88943,1662669393.5820284
8.23,35.5586,2.90519,1662669394.5779371
8.231,35.5586,2.90554,1662669395.5779264
8.23,35.5586,2.94634,1662669396.5778637
8.23,35.5586,2.94634,1662669397.5748758
8.231,35.5586,2.90554,1662669398.5767555
8.231,35.5586,2.90554,1662669399.5769126
8.233,35.5586,2.93095,1662669400.5779507
8.232,35.5586,2.9059,1662669401.5759237
8.232,35.5586,2.9059,1662669402.5778732
8.23,35.5509,2.88873,1662669403.5769567
8.231,35.5509,2.83146,1662669404.5768993
8.233,35.5509,2.77452,1662669405.5778785
8.233,35.5509,2.76629,1662669406.5779581
8.231,35.5509,2.78208,1662669407.5779541
8.232,35.5509,2.79065,1662669408.5799088
8.231,35.5509,2.76562,1662669409.5778408
8.232,35.5509,2.78242,1662669410.5780296
8.232,35.5509,2.78242,1662669411.5758913
8.23,35.5509,2.7982,1662669412.5757141
8.23,35.5432,2.74882,1662669413.57797
8.23,35.5432,2.74882,1662669414.5790792
8.231,35.5432,2.815,1662669415.5778658
8.229,35.5432,2.84723,1662669416.5779469
8.231,35.5432,2.74915,1662669417.576973
8.23,35.5432,2.82289,1662669418.5749385
8.217,35.5432,2.76913,1662669419.5809317
8.221,35.5432,2.78692,1662669420.5795107
8.221,35.5432,2.78692,1662669421.5749736
8.211,35.5432,2.94775,1662669422.5778756
8.226,35.5355,2.85442,1662669423.5788672
8.228,35.5355,2.89626,1662669424.5779462
8.228,35.5355,2.8222,1662669425.5779154
8.23,35.5355,2.7982,1662669426.5759068
8.23,35.5355,2.7982,1662669427.5778987
8.23,35.5355,2.80643,1662669428.5739591
8.231,35.5355,2.78208,1662669429.5750337
8.233,35.5355,2.79099,1662669430.5823979